VSV765 OMDB-OBBI

Flight info

Callsign VSV765
Flight time 0h 50m
Altitude 26000
Route NABIX P699 ORMID Y856 ALKAN/N0373F180 Y856 SOLOB/N0364F160 Y856 ORDIG
Aircraft B733/M-SDE2E3FHIRW/S

Departure

Time 2026-04-20 15:05
Airport Dubai International Airport (OMDB)

Arrival

Time 2026-04-20 15:56
Airport Bahrain International Airport (OBBI)
Time Latitude Longitude Altitude Speed Heading
2026-04-20 14:26 25.26451 55.35781 4 ft 0 kts 31°
2026-04-20 14:52 25.26450 55.35780 4 ft 1 kts 32°
2026-04-20 14:53 25.26438 55.35772 4 ft 2 kts 31°
2026-04-20 14:53 25.26425 55.35763 4 ft 2 kts 31°
2026-04-20 14:53 25.26412 55.35754 4 ft 2 kts 31°
2026-04-20 14:53 25.26399 55.35746 3 ft 2 kts 31°
2026-04-20 14:54 25.26386 55.35737 3 ft 2 kts 32°
2026-04-20 14:54 25.26375 55.35725 2 ft 2 kts 54°
2026-04-20 14:54 25.26368 55.35711 2 ft 2 kts 71°
2026-04-20 14:54 25.26365 55.35695 2 ft 2 kts 88°
2026-04-20 14:55 25.26365 55.35688 2 ft 0 kts 93°
2026-04-20 14:57 25.26365 55.35693 2 ft 1 kts 93°
2026-04-20 14:57 25.26363 55.35717 2 ft 4 kts 93°
2026-04-20 14:58 25.26357 55.35762 1 ft 8 kts 109°
2026-04-20 14:58 25.26324 55.35828 0 ft 11 kts 121°
2026-04-20 14:58 25.26280 55.35907 2 ft 12 kts 121°
2026-04-20 14:58 25.26231 55.35995 4 ft 14 kts 121°
2026-04-20 14:59 25.26178 55.36092 6 ft 15 kts 121°
2026-04-20 14:59 25.26119 55.36198 7 ft 16 kts 121°
2026-04-20 14:59 25.26058 55.36306 7 ft 13 kts 129°
2026-04-20 14:59 25.25984 55.36325 7 ft 7 kts 179°
2026-04-20 15:00 25.25936 55.36354 9 ft 9 kts 124°
2026-04-20 15:00 25.25900 55.36419 11 ft 10 kts 121°
2026-04-20 15:00 25.25866 55.36478 13 ft 8 kts 121°
2026-04-20 15:00 25.25829 55.36546 14 ft 11 kts 121°
2026-04-20 15:01 25.25779 55.36636 16 ft 15 kts 121°
2026-04-20 15:01 25.25715 55.36752 20 ft 18 kts 121°
2026-04-20 15:01 25.25641 55.36884 24 ft 21 kts 122°
2026-04-20 15:01 25.25556 55.37037 27 ft 25 kts 121°
2026-04-20 15:02 25.25455 55.37221 27 ft 30 kts 121°
2026-04-20 15:02 25.25337 55.37432 26 ft 31 kts 121°
2026-04-20 15:02 25.25231 55.37624 25 ft 29 kts 121°
2026-04-20 15:02 25.25130 55.37805 25 ft 27 kts 121°
2026-04-20 15:03 25.25036 55.37974 23 ft 17 kts 122°
2026-04-20 15:03 25.24991 55.38055 23 ft 11 kts 122°
2026-04-20 15:03 25.24925 55.38117 23 ft 14 kts 186°
2026-04-20 15:03 25.24834 55.38066 25 ft 14 kts 215°
2026-04-20 15:04 25.24834 55.37974 27 ft 10 kts 298°
2026-04-20 15:04 25.24874 55.37902 28 ft 12 kts 302°
2026-04-20 15:04 25.24948 55.37772 29 ft 35 kts 302°
2026-04-20 15:04 25.25210 55.37297 36 ft 106 kts 301°
2026-04-20 15:05 25.25707 55.36400 75 ft 155 kts 305°
2026-04-20 15:05 25.26297 55.35355 579 ft 163 kts 304°
2026-04-20 15:05 25.26891 55.34291 1207 ft 164 kts 305°
2026-04-20 15:05 25.27498 55.33222 1813 ft 167 kts 305°
2026-04-20 15:06 25.28105 55.32124 2433 ft 169 kts 304°
2026-04-20 15:06 25.28753 55.30955 2763 ft 193 kts 304°
2026-04-20 15:06 25.29262 55.29452 3000 ft 224 kts 271°
2026-04-20 15:06 25.28814 55.27728 3500 ft 242 kts 245°
2026-04-20 15:07 25.28114 55.26068 4076 ft 237 kts 245°
2026-04-20 15:07 25.27398 55.24373 4230 ft 255 kts 245°
2026-04-20 15:07 25.26611 55.22519 4196 ft 265 kts 245°
2026-04-20 15:07 25.25830 55.20677 4171 ft 263 kts 245°
2026-04-20 15:08 25.25045 55.18827 4180 ft 267 kts 245°
2026-04-20 15:08 25.24256 55.16936 5006 ft 267 kts 249°
2026-04-20 15:08 25.23858 55.14975 5950 ft 265 kts 261°
2026-04-20 15:08 25.23575 55.12880 6498 ft 280 kts 262°
2026-04-20 15:09 25.23280 55.10681 7232 ft 287 kts 261°
2026-04-20 15:09 25.22981 55.08477 8037 ft 291 kts 261°
2026-04-20 15:09 25.22679 55.06250 8850 ft 293 kts 261°
2026-04-20 15:09 25.22370 55.03988 9658 ft 296 kts 261°
2026-04-20 15:10 25.22059 55.01710 10433 ft 300 kts 261°
2026-04-20 15:10 25.21728 54.99296 10648 ft 326 kts 261°
2026-04-20 15:10 25.21378 54.96746 11103 ft 341 kts 261°
2026-04-20 15:10 25.21056 54.94112 11847 ft 346 kts 264°
2026-04-20 15:11 25.20859 54.91442 12625 ft 350 kts 265°
2026-04-20 15:11 25.20667 54.88704 13374 ft 355 kts 264°
2026-04-20 15:11 25.20471 54.85931 14119 ft 359 kts 264°
2026-04-20 15:11 25.20274 54.83174 14843 ft 363 kts 264°
2026-04-20 15:12 25.20074 54.80378 15562 ft 366 kts 264°
2026-04-20 15:12 25.19869 54.77525 16281 ft 370 kts 264°
2026-04-20 15:12 25.19865 54.74665 16971 ft 375 kts 271°
2026-04-20 15:12 25.20043 54.71769 17640 ft 379 kts 272°
2026-04-20 15:13 25.20225 54.68850 18304 ft 382 kts 271°
2026-04-20 15:13 25.20405 54.65876 18959 ft 385 kts 271°
2026-04-20 15:13 25.20584 54.62851 19610 ft 388 kts 271°
2026-04-20 15:13 25.20759 54.59858 20243 ft 390 kts 271°
2026-04-20 15:14 25.20933 54.56859 20865 ft 392 kts 270°
2026-04-20 15:14 25.21114 54.53823 21469 ft 395 kts 272°
2026-04-20 15:14 25.21653 54.50779 22055 ft 401 kts 282°
2026-04-20 15:14 25.22432 54.47760 22635 ft 404 kts 283°
2026-04-20 15:15 25.23213 54.44746 23209 ft 406 kts 282°
2026-04-20 15:15 25.23991 54.41700 23769 ft 408 kts 282°
2026-04-20 15:15 25.24769 54.38631 24318 ft 410 kts 282°
2026-04-20 15:15 25.25557 54.35507 24865 ft 412 kts 282°
2026-04-20 15:16 25.26344 54.32372 25358 ft 415 kts 281°
2026-04-20 15:16 25.27121 54.29245 25808 ft 418 kts 281°
2026-04-20 15:16 25.27893 54.26118 25954 ft 415 kts 281°
2026-04-20 15:16 25.28656 54.23043 26035 ft 406 kts 281°
2026-04-20 15:17 25.29398 54.20053 26031 ft 402 kts 281°
2026-04-20 15:17 25.30138 54.17060 25988 ft 402 kts 281°
2026-04-20 15:17 25.30884 54.14045 25959 ft 403 kts 281°
2026-04-20 15:17 25.31555 54.11034 25947 ft 403 kts 279°
2026-04-20 15:18 25.32188 54.08015 25935 ft 404 kts 279°
2026-04-20 15:18 25.32836 54.04933 25920 ft 405 kts 279°
2026-04-20 15:18 25.33478 54.01899 25907 ft 405 kts 279°
2026-04-20 15:18 25.34122 53.98856 25891 ft 406 kts 279°
2026-04-20 15:19 25.34768 53.95805 25887 ft 406 kts 279°
2026-04-20 15:19 25.35416 53.92740 25886 ft 406 kts 279°
2026-04-20 15:19 25.36066 53.89665 25887 ft 406 kts 279°
2026-04-20 15:19 25.36709 53.86621 25886 ft 406 kts 279°
2026-04-20 15:20 25.37351 53.83562 25887 ft 406 kts 279°
2026-04-20 15:20 25.37993 53.80492 25888 ft 406 kts 279°
2026-04-20 15:20 25.38632 53.77449 25886 ft 406 kts 279°
2026-04-20 15:20 25.39279 53.74367 25886 ft 406 kts 279°
2026-04-20 15:21 25.39922 53.71307 25886 ft 406 kts 279°
2026-04-20 15:21 25.40559 53.68274 25886 ft 406 kts 279°
2026-04-20 15:21 25.41205 53.65194 25886 ft 406 kts 279°
2026-04-20 15:21 25.41842 53.62156 25887 ft 406 kts 279°
2026-04-20 15:22 25.42481 53.59105 25888 ft 406 kts 279°
2026-04-20 15:22 25.43120 53.56025 25886 ft 405 kts 279°
2026-04-20 15:22 25.43755 53.52960 25885 ft 406 kts 279°
2026-04-20 15:22 25.44388 53.49915 25887 ft 406 kts 279°
2026-04-20 15:23 25.45031 53.46819 25886 ft 406 kts 279°
2026-04-20 15:23 25.45669 53.43753 25886 ft 406 kts 279°
2026-04-20 15:23 25.46303 53.40704 25887 ft 406 kts 279°
2026-04-20 15:23 25.46943 53.37620 25886 ft 406 kts 279°
2026-04-20 15:24 25.47576 53.34568 25884 ft 406 kts 278°
2026-04-20 15:24 25.48212 53.31493 25870 ft 405 kts 278°
2026-04-20 15:24 25.48848 53.28416 25885 ft 405 kts 278°
2026-04-20 15:24 25.49485 53.25330 25887 ft 406 kts 278°
2026-04-20 15:25 25.50111 53.22269 25885 ft 405 kts 278°
2026-04-20 15:25 25.50746 53.19149 25881 ft 405 kts 278°
2026-04-20 15:25 25.51369 53.16105 25878 ft 405 kts 278°
2026-04-20 15:25 25.51997 53.13041 25874 ft 405 kts 278°
2026-04-20 15:26 25.52624 53.09977 25873 ft 405 kts 278°
2026-04-20 15:26 25.53249 53.06929 25873 ft 405 kts 278°
2026-04-20 15:26 25.53882 53.03834 25871 ft 405 kts 278°
2026-04-20 15:26 25.54513 53.00748 25872 ft 404 kts 278°
2026-04-20 15:27 25.55134 52.97708 25869 ft 404 kts 278°
2026-04-20 15:27 25.55757 52.94636 25867 ft 403 kts 278°
2026-04-20 15:27 25.56375 52.91601 25863 ft 403 kts 280°
2026-04-20 15:27 25.57461 52.88676 25873 ft 408 kts 294°
2026-04-20 15:28 25.58837 52.85916 25860 ft 410 kts 295°
2026-04-20 15:28 25.60239 52.83106 25855 ft 409 kts 294°
2026-04-20 15:28 25.61587 52.80351 25853 ft 408 kts 294°
2026-04-20 15:28 25.62961 52.77515 25845 ft 407 kts 294°
2026-04-20 15:29 25.64286 52.74765 25842 ft 407 kts 294°
2026-04-20 15:29 25.65631 52.71969 25844 ft 407 kts 294°
2026-04-20 15:29 25.66974 52.69175 25846 ft 408 kts 294°
2026-04-20 15:29 25.68311 52.66389 25817 ft 408 kts 294°
2026-04-20 15:30 25.69648 52.63601 25698 ft 408 kts 294°
2026-04-20 15:30 25.70981 52.60820 25549 ft 408 kts 294°
2026-04-20 15:30 25.72322 52.58021 25402 ft 408 kts 294°
2026-04-20 15:30 25.73649 52.55250 25255 ft 409 kts 294°
2026-04-20 15:31 25.75003 52.52420 25106 ft 410 kts 294°
2026-04-20 15:31 25.76360 52.49583 24956 ft 410 kts 294°
2026-04-20 15:31 25.77718 52.46740 24806 ft 411 kts 294°
2026-04-20 15:31 25.79069 52.43912 24657 ft 412 kts 294°
2026-04-20 15:32 25.80421 52.41079 24509 ft 412 kts 294°
2026-04-20 15:32 25.81772 52.38248 24362 ft 413 kts 294°
2026-04-20 15:32 25.83117 52.35427 24211 ft 412 kts 294°
2026-04-20 15:32 25.84461 52.32598 24026 ft 413 kts 294°
2026-04-20 15:33 25.85812 52.29752 23880 ft 413 kts 294°
2026-04-20 15:33 25.87214 52.26884 23799 ft 415 kts 299°
2026-04-20 15:33 25.88910 52.24272 23837 ft 418 kts 304°
2026-04-20 15:33 25.90714 52.21684 23844 ft 418 kts 304°
2026-04-20 15:34 25.92495 52.19117 23836 ft 417 kts 304°
2026-04-20 15:34 25.94258 52.16558 23833 ft 417 kts 304°
2026-04-20 15:34 25.96028 52.13981 23832 ft 417 kts 303°
2026-04-20 15:34 25.97805 52.11388 23832 ft 417 kts 303°
2026-04-20 15:35 25.99567 52.08815 23832 ft 417 kts 303°
2026-04-20 15:35 26.01328 52.06242 23832 ft 417 kts 303°
2026-04-20 15:35 26.03099 52.03652 23832 ft 417 kts 303°
2026-04-20 15:35 26.04853 52.01087 23832 ft 417 kts 303°
2026-04-20 15:36 26.06632 51.98481 23832 ft 417 kts 303°
2026-04-20 15:36 26.08208 51.95784 23839 ft 413 kts 297°
2026-04-20 15:36 26.09660 51.93020 23836 ft 413 kts 297°
2026-04-20 15:36 26.11147 51.90260 23810 ft 413 kts 297°
2026-04-20 15:37 26.12652 51.87527 23825 ft 413 kts 298°
2026-04-20 15:37 26.14170 51.84784 23831 ft 413 kts 298°
2026-04-20 15:37 26.15690 51.82037 23534 ft 417 kts 298°
2026-04-20 15:37 26.17218 51.79275 23043 ft 416 kts 298°
2026-04-20 15:38 26.18752 51.76503 22502 ft 415 kts 298°
2026-04-20 15:38 26.20265 51.73765 21956 ft 415 kts 298°
2026-04-20 15:38 26.21781 51.71020 21411 ft 417 kts 299°
2026-04-20 15:38 26.23311 51.68247 20841 ft 419 kts 299°
2026-04-20 15:39 26.24827 51.65502 20262 ft 413 kts 299°
2026-04-20 15:39 26.26348 51.62743 19675 ft 407 kts 299°
2026-04-20 15:39 26.27819 51.60075 19099 ft 402 kts 300°
2026-04-20 15:39 26.29291 51.57403 18516 ft 397 kts 300°
2026-04-20 15:40 26.30734 51.54781 17937 ft 393 kts 300°
2026-04-20 15:40 26.32149 51.52208 17363 ft 389 kts 300°
2026-04-20 15:40 26.33562 51.49638 16786 ft 385 kts 300°
2026-04-20 15:40 26.34975 51.47066 16202 ft 381 kts 300°
2026-04-20 15:41 26.36377 51.44513 15617 ft 377 kts 301°
2026-04-20 15:41 26.37762 51.41991 15034 ft 374 kts 301°
2026-04-20 15:41 26.39109 51.39535 14462 ft 371 kts 301°
2026-04-20 15:41 26.40448 51.37093 13889 ft 368 kts 301°
2026-04-20 15:42 26.41799 51.34626 13302 ft 365 kts 301°
2026-04-20 15:42 26.43143 51.32164 12689 ft 363 kts 301°
2026-04-20 15:42 26.44449 51.29729 12187 ft 356 kts 297°
2026-04-20 15:42 26.45203 51.27172 12034 ft 340 kts 276°
2026-04-20 15:43 26.45053 51.24566 11912 ft 336 kts 254°
2026-04-20 15:43 26.44093 51.22203 11314 ft 332 kts 234°
2026-04-20 15:43 26.42739 51.20076 10785 ft 329 kts 233°
2026-04-20 15:43 26.41409 51.18035 10507 ft 319 kts 233°
2026-04-20 15:44 26.40127 51.16066 10249 ft 309 kts 233°
2026-04-20 15:44 26.38875 51.14140 9989 ft 300 kts 233°
2026-04-20 15:44 26.37669 51.12283 9729 ft 291 kts 233°
2026-04-20 15:44 26.36478 51.10447 9464 ft 283 kts 233°
2026-04-20 15:45 26.35314 51.08661 9215 ft 285 kts 233°
2026-04-20 15:45 26.34143 51.06875 8968 ft 286 kts 233°
2026-04-20 15:45 26.32953 51.05075 8716 ft 285 kts 233°
2026-04-20 15:45 26.31753 51.03274 8463 ft 285 kts 233°
2026-04-20 15:46 26.30569 51.01512 8214 ft 284 kts 233°
2026-04-20 15:46 26.29269 50.99823 7949 ft 283 kts 218°
2026-04-20 15:46 26.27695 50.98590 7704 ft 274 kts 213°
2026-04-20 15:46 26.26096 50.97426 7442 ft 267 kts 213°
2026-04-20 15:47 26.24551 50.96312 7183 ft 261 kts 213°
2026-04-20 15:47 26.23022 50.95216 6920 ft 255 kts 213°
2026-04-20 15:47 26.21529 50.94156 6661 ft 249 kts 213°
2026-04-20 15:47 26.20082 50.93133 6413 ft 242 kts 213°
2026-04-20 15:48 26.18648 50.92128 6168 ft 244 kts 213°
2026-04-20 15:48 26.17206 50.91124 5917 ft 242 kts 213°
2026-04-20 15:48 26.15800 50.90151 5768 ft 229 kts 213°
2026-04-20 15:48 26.14473 50.89239 5519 ft 221 kts 213°
2026-04-20 15:49 26.13169 50.88349 5192 ft 217 kts 213°
2026-04-20 15:49 26.11882 50.87460 4824 ft 214 kts 218°
2026-04-20 15:49 26.10926 50.86219 4371 ft 212 kts 235°
2026-04-20 15:49 26.09817 50.85127 3940 ft 213 kts 222°
2026-04-20 15:50 26.09005 50.83785 3488 ft 206 kts 259°
2026-04-20 15:50 26.09084 50.82238 3039 ft 200 kts 297°
2026-04-20 15:50 26.09993 50.81113 2646 ft 194 kts 331°
2026-04-20 15:50 26.11163 50.80391 2311 ft 192 kts 333°
2026-04-20 15:51 26.12331 50.79695 1993 ft 189 kts 333°
2026-04-20 15:51 26.13475 50.79015 1849 ft 181 kts 333°
2026-04-20 15:51 26.14549 50.78373 1877 ft 170 kts 333°
2026-04-20 15:51 26.15616 50.77735 1922 ft 173 kts 333°
2026-04-20 15:52 26.16756 50.77055 1919 ft 196 kts 333°
2026-04-20 15:52 26.17966 50.76336 1875 ft 197 kts 333°
2026-04-20 15:52 26.19132 50.75642 1862 ft 181 kts 333°
2026-04-20 15:53 26.20861 50.73799 1486 ft 168 kts 314°
2026-04-20 15:53 26.21609 50.72777 1453 ft 169 kts 309°
2026-04-20 15:53 26.22287 50.71690 1479 ft 170 kts 306°
2026-04-20 15:53 26.22937 50.70571 1314 ft 169 kts 305°
2026-04-20 15:54 26.23548 50.69499 1044 ft 155 kts 306°
2026-04-20 15:54 26.24111 50.68512 843 ft 148 kts 305°
2026-04-20 15:54 26.24666 50.67541 640 ft 148 kts 306°
2026-04-20 15:54 26.25203 50.66571 422 ft 146 kts 304°
2026-04-20 15:55 26.25755 50.65639 235 ft 142 kts 307°
2026-04-20 15:55 26.26291 50.64716 77 ft 138 kts 306°
2026-04-20 15:55 26.26805 50.63822 26 ft 133 kts 304°
2026-04-20 15:55 26.27264 50.63048 26 ft 92 kts 304°
2026-04-20 15:56 26.27528 50.62595 29 ft 57 kts 299°
2026-04-20 15:56 26.27692 50.62304 22 ft 36 kts 303°
2026-04-20 15:56 26.27767 50.62124 16 ft 23 kts 269°
2026-04-20 15:56 26.27746 50.61988 14 ft 4 kts 258°
2026-04-20 15:57 26.27742 50.61969 14 ft 0 kts 258°
2026-04-20 15:57 26.27742 50.61966 14 ft 1 kts 258°
2026-04-20 15:57 26.27738 50.61948 14 ft 2 kts 242°
2026-04-20 15:58 26.27727 50.61946 14 ft 2 kts 166°
2026-04-20 15:58 26.27701 50.61968 14 ft 6 kts 134°
2026-04-20 15:58 26.27666 50.62015 14 ft 8 kts 127°
2026-04-20 15:58 26.27631 50.62072 16 ft 8 kts 123°
2026-04-20 15:59 26.27597 50.62131 18 ft 9 kts 123°
2026-04-20 15:59 26.27562 50.62191 19 ft 9 kts 123°
2026-04-20 15:59 26.27527 50.62252 21 ft 9 kts 123°
2026-04-20 15:59 26.27491 50.62314 23 ft 9 kts 123°
2026-04-20 16:00 26.27454 50.62379 25 ft 9 kts 122°
2026-04-20 16:00 26.27417 50.62443 27 ft 9 kts 122°
2026-04-20 16:00 26.27380 50.62508 29 ft 9 kts 122°
2026-04-20 16:00 26.27342 50.62574 31 ft 10 kts 123°
2026-04-20 16:01 26.27303 50.62640 33 ft 4 kts 124°
2026-04-20 16:01 26.27293 50.62657 33 ft 3 kts 124°
2026-04-20 16:01 26.27277 50.62684 33 ft 5 kts 124°
2026-04-20 16:01 26.27247 50.62736 32 ft 9 kts 122°
2026-04-20 16:02 26.27203 50.62813 31 ft 13 kts 123°
2026-04-20 16:02 26.27150 50.62889 29 ft 11 kts 141°
2026-04-20 16:02 26.27105 50.62902 29 ft 1 kts 190°
2026-04-20 16:02 26.27091 50.62899 29 ft 2 kts 203°
2026-04-20 16:03 26.27068 50.62888 29 ft 4 kts 202°
2026-04-20 16:03 26.27028 50.62886 29 ft 8 kts 155°
2026-04-20 16:03 26.26980 50.62950 27 ft 12 kts 123°
2026-04-20 16:03 26.26944 50.63012 26 ft 1 kts 123°
2026-04-20 16:04 26.26931 50.63034 25 ft 5 kts 129°
2026-04-20 16:04 26.26875 50.63041 24 ft 11 kts 206°
2026-04-20 16:04 26.26815 50.62999 24 ft 3 kts 213°
2026-04-20 16:04 26.26814 50.62998 24 ft 0 kts 213°